Weather History for Burlington, VT

Change the Weather History Date:

Thursday, December 29, 2011

  Actual Average Record
Temperature  
Mean Temperature 15 °F 21 °F  
Max Temperature 23 °F 29 °F 58 °F (1984)
Min Temperature 7 °F 13 °F -29 °F (1933)
Degree Days  
Heating Degree Days 50 44  
Month to date heating degree days 983 1125  
Since 1 July heating degree days 2179 2670  
Cooling Degree Days 0 0  
Month to date cooling degree days 0 0  
Year to date cooling degree days 628 491  
Moisture  
Dew Point -2 °F    
Average Humidity 52    
Maximum Humidity 73    
Minimum Humidity 31    
Precipitation  
Precipitation 0.00 in 0.07 in 0.54 in (1967)
Month to date precipitation 2.14 2.25  
Year to date precipitation 50.83 36.69  
Snow  
Snow 0.00 in 0.70 in 9.00 in (1967)
Month to date snowfall 6.5 16.6  
Since 1 July snowfall 11.6 22.0  
Snow Depth 1.00 in    
Sea Level Pressure  
Sea Level Pressure 29.94 in    
Wind  
Wind Speed 9 mph (NNW)    
Max Wind Speed 20 mph    
Max Gust Speed 23 mph    
Visibility 10 miles    
Events      
T = Trace of Precipitation, MM = Missing Value Source: NWS Daily Summary

Daily Weather History Graph

Daily Weather History Graph

Search for Another Location

Airport:

Trip Planner

Search our weather history database for the weather conditions in past years. The results will help you decide how hot, cold, wet, or windy it might be!

Date:

Astronomy

Dec. 29, 2011 Rise Set
Actual Time 7:28 AM EST 4:20 PM EST
Civil Twilight 6:55 AM EST 4:54 PM EST
Nautical Twilight 6:18 AM EST 5:30 PM EST
Astronomical Twilight 5:43 AM EST 6:06 PM EST
Moon 10:08 AM EST 10:08 PM EST
Length of Visible Light 9h 58m
Length of Day
8h 52m
Waxing Crescent, 26% of the Moon is Illuminated
Dec 29
Waxing Crescent
Jan 1
First Quarter
Jan 9
Full
Jan 16
Last Quarter
Jan 23
New

Hourly Weather History & Observations

Time (EST) Temp. Windchill Dew Point Humidity Pressure Visibility Wind Dir Wind Speed Gust Speed Precip Events Conditions
12:54 AM 10.9 °F -1.8 °F -2.0 °F 56% 29.81 in 10.0 mi WNW 9.2 mph - N/A   Partly Cloudy
1:54 AM 10.4 °F -4.1 °F -2.2 °F 57% 29.81 in 10.0 mi WNW 11.5 mph - N/A   Clear
2:54 AM 10.0 °F -0.9 °F -2.0 °F 58% 29.86 in 10.0 mi WNW 6.9 mph - N/A   Clear
3:54 AM 10.0 °F -2.9 °F -2.9 °F 56% 29.86 in 10.0 mi NW 9.2 mph - N/A   Clear
4:54 AM 10.0 °F 0.4 °F -4.0 °F 53% 29.88 in 10.0 mi NW 5.8 mph - N/A   Clear
5:54 AM 10.4 °F -1.5 °F -5.8 °F 48% 29.87 in 10.0 mi WNW 8.1 mph - N/A   Clear
6:54 AM 8.1 °F -3.2 °F -5.1 °F 55% 29.91 in 10.0 mi NNW 6.9 mph - N/A   Clear
7:54 AM 10.9 °F -2.6 °F -5.1 °F 49% 29.93 in 10.0 mi NW 10.4 mph - N/A   Clear
8:54 AM 12.9 °F -1.6 °F -2.9 °F 49% 29.94 in 10.0 mi NNW 12.7 mph - N/A   Partly Cloudy
9:54 AM 16.0 °F 2.9 °F -5.1 °F 39% 29.96 in 10.0 mi WNW 11.5 mph - N/A   Partly Cloudy
10:54 AM 18.0 °F 6.9 °F -6.0 °F 35% 29.94 in 10.0 mi WNW 9.2 mph - N/A   Clear
11:54 AM 19.4 °F 7.2 °F -2.2 °F 39% 29.91 in 10.0 mi WNW 11.5 mph - N/A   Clear
12:54 PM 21.9 °F 9.8 °F -0.9 °F 37% 29.92 in 10.0 mi NW 12.7 mph - N/A   Partly Cloudy
1:54 PM 21.9 °F 9.2 °F -5.1 °F 30% 29.93 in 10.0 mi NW 13.8 mph 19.6 mph N/A   Clear
2:54 PM 23.0 °F 9.6 °F -4.0 °F 31% 29.94 in 10.0 mi NW 16.1 mph 19.6 mph N/A   Clear
3:54 PM 21.9 °F 10.4 °F -4.0 °F 32% 29.96 in 10.0 mi NW 11.5 mph - N/A   Clear
4:54 PM 18.0 °F 6.9 °F 1.0 °F 48% 29.98 in 10.0 mi NNE 9.2 mph - N/A   Clear
5:54 PM 15.1 °F 7.7 °F 1.9 °F 56% 30.00 in 10.0 mi East 4.6 mph - N/A   Clear
6:54 PM 12.9 °F 3.8 °F 1.9 °F 62% 30.01 in 10.0 mi ENE 5.8 mph - N/A   Clear
7:54 PM 12.2 °F 0.7 °F 1.4 °F 62% 30.00 in 10.0 mi East 8.1 mph - N/A   Clear
8:54 PM 10.9 °F 1.4 °F -0.0 °F 61% 30.03 in 10.0 mi ENE 5.8 mph - N/A   Clear
9:54 PM 9.0 °F 0.6 °F 1.0 °F 70% 30.04 in 10.0 mi ENE 4.6 mph - N/A   Clear
10:54 PM 8.1 °F 1.4 °F 1.0 °F 73% 30.06 in 10.0 mi East 3.5 mph - N/A   Clear
11:54 PM 7.0 °F - 1.0 °F 77% 30.06 in 10.0 mi Calm Calm - N/A   Clear